| time (UTC) | temp C | wind direction | speed KPH | gust KPH | rain 1hr cm | rain 24hr cm | rain mn cm | humidity % | barometer mb |
| 20260508100204 | 13 | 84 | 0.0 | 9.7 | 0.00 | 0.00 | 0.00 | 67 | 1016.5 |
| 20260508095205 | 13 | 46 | 0.0 | 11.3 | 0.00 | 0.00 | 0.00 | 68 | 1016.7 |
| 20260508094204 | 13 | 42 | 0.0 | 11.3 | 0.00 | 0.00 | 0.00 | 69 | 1016.8 |
| 20260508093205 | 13 | 71 | 4.8 | 12.9 | 0.00 | 0.00 | 0.00 | 70 | 1017.0 |
| 20260508092705 | 13 | 67 | 0.0 | 12.9 | 0.00 | 0.00 | 0.00 | 71 | 1017.1 |
| 20260508091704 | 13 | 78 | 4.8 | 12.9 | 0.00 | 0.00 | 0.00 | 74 | 1017.4 |
| 20260508091204 | 13 | 54 | 1.6 | 9.7 | 0.00 | 0.00 | 0.00 | 75 | 1017.5 |
| 20260508090705 | 12 | 80 | 3.2 | 9.7 | 0.00 | 0.00 | 0.00 | 76 | 1017.6 |
| 20260508085705 | 12 | 77 | 0.0 | 9.7 | 0.00 | 0.00 | 0.00 | 76 | 1017.8 |
| 20260508085205 | 12 | 68 | 6.4 | 9.7 | 0.00 | 0.00 | 0.00 | 78 | 1017.9 |
| 20260508084704 | 12 | 154 | 6.4 | 9.7 | 0.00 | 0.00 | 0.00 | 79 | 1018.0 |
| 20260508084205 | 11 | 39 | 1.6 | 9.7 | 0.00 | 0.00 | 0.00 | 79 | 1018.0 |
| 20260508083705 | 11 | 85 | 0.0 | 9.7 | 0.00 | 0.00 | 0.00 | 82 | 1018.1 |
| 20260508082704 | 11 | 32 | 0.0 | 3.2 | 0.00 | 0.00 | 0.00 | 84 | 1018.1 |
| 20260508082205 | 11 | 32 | 0.0 | 3.2 | 0.00 | 0.00 | 0.00 | 85 | 1018.1 |
| 20260508081704 | 10 | 111 | 0.0 | 0.0 | 0.00 | 0.00 | 0.00 | 87 | 1018.1 |
| 20260508081204 | 10 | 111 | 0.0 | 0.0 | 0.00 | 0.00 | 0.00 | 90 | 1018.1 |
| 20260508080204 | 10 | 111 | 0.0 | 0.0 | 0.00 | 0.00 | 0.00 | 94 | 1018.2 |
| 20260508075704 | 10 | 111 | 0.0 | 0.0 | 0.00 | 0.00 | 0.00 | 95 | 1018.2 |
| 20260508075205 | 9 | 111 | 0.0 | 0.0 | 0.00 | 0.00 | 0.00 | 96 | 1018.1 |
| 20260508074704 | 8 | 111 | 0.0 | 0.0 | 0.00 | 0.00 | 0.00 | 98 | 1018.1 |
| 20260508074205 | 8 | 111 | 0.0 | 0.0 | 0.00 | 0.00 | 0.00 | 98 | 1018.1 |
| 20260508073205 | 7 | 111 | 0.0 | 0.0 | 0.00 | 0.00 | 0.00 | 98 | 1018.0 |
| 20260508072705 | 7 | 111 | 0.0 | 0.0 | 0.00 | 0.00 | 0.00 | 98 | 1018.0 |
| 20260508072205 | 7 | 111 | 0.0 | 0.0 | 0.00 | 0.00 | 0.00 | 98 | 1018.0 |
| 20260508071704 | 7 | 111 | 0.0 | 0.0 | 0.00 | 0.00 | 0.00 | 98 | 1018.0 |
| 20260508071205 | 6 | 111 | 0.0 | 0.0 | 0.00 | 0.00 | 0.00 | 98 | 1018.0 |
| 20260508070705 | 6 | 111 | 0.0 | 0.0 | 0.00 | 0.00 | 0.00 | 98 | 1018.0 |
| 20260508070205 | 6 | 111 | 0.0 | 0.0 | 0.00 | 0.00 | 0.00 | 98 | 1018.0 |
| 20260508065705 | 5 | 111 | 0.0 | 0.0 | 0.00 | 0.00 | 0.00 | 96 | 1018.0 |
| 20260508065205 | 5 | 111 | 0.0 | 0.0 | 0.00 | 0.00 | 0.00 | 96 | 1018.0 |
| 20260508064704 | 5 | 111 | 0.0 | 0.0 | 0.00 | 0.00 | 0.00 | 96 | 1017.9 |
| 20260508064205 | 4 | 111 | 0.0 | 0.0 | 0.00 | 0.00 | 0.00 | 96 | 1017.9 |
| 20260508063205 | 4 | 111 | 0.0 | 0.0 | 0.00 | 0.00 | 0.00 | 95 | 1017.9 |
| 20260508062705 | 4 | 111 | 0.0 | 0.0 | 0.00 | 0.00 | 0.00 | 95 | 1017.9 |
| 20260508061705 | 4 | 111 | 0.0 | 0.0 | 0.00 | 0.00 | 0.00 | 95 | 1017.7 |
| 20260508061205 | 3 | 111 | 0.0 | 0.0 | 0.00 | 0.00 | 0.00 | 95 | 1017.7 |
| 20260508060705 | 3 | 111 | 0.0 | 0.0 | 0.00 | 0.00 | 0.00 | 94 | 1017.7 |
| 20260508060204 | 3 | 111 | 0.0 | 0.0 | 0.00 | 0.00 | 0.00 | 94 | 1017.7 |
| 20260508055704 | 3 | 111 | 0.0 | 0.0 | 0.00 | 0.00 | 0.00 | 94 | 1017.6 |
| 20260508055205 | 3 | 111 | 0.0 | 0.0 | 0.00 | 0.00 | 0.00 | 94 | 1017.6 |
| 20260508054704 | 3 | 111 | 0.0 | 0.0 | 0.00 | 0.00 | 0.00 | 94 | 1017.5 |
| 20260508054205 | 3 | 111 | 0.0 | 0.0 | 0.00 | 0.00 | 0.00 | 93 | 1017.6 |
| 20260508053204 | 2 | 111 | 0.0 | 0.0 | 0.00 | 0.00 | 0.00 | 93 | 1017.5 |
| 20260508052705 | 2 | 111 | 0.0 | 0.0 | 0.00 | 0.00 | 0.00 | 93 | 1017.4 |
| 20260508052228 | 2 | 111 | 0.0 | 0.0 | 0.00 | 0.00 | 0.00 | 93 | 1017.3 |
| 20260508051204 | 2 | 111 | 0.0 | 0.0 | 0.00 | 0.00 | 0.00 | 93 | 1017.3 |
| 20260508050704 | 2 | 111 | 0.0 | 0.0 | 0.00 | 0.00 | 0.00 | 93 | 1017.3 |
| 20260508050205 | 2 | 111 | 0.0 | 0.0 | 0.00 | 0.00 | 0.00 | 93 | 1017.2 |
| 20260508045205 | 2 | 111 | 0.0 | 0.0 | 0.00 | 0.00 | 0.00 | 92 | 1017.3 |
| 20260508044705 | 2 | 111 | 0.0 | 0.0 | 0.00 | 0.00 | 0.00 | 92 | 1017.4 |
| 20260508044204 | 2 | 111 | 0.0 | 0.0 | 0.00 | 0.00 | 0.00 | 92 | 1017.4 |
| 20260508043705 | 2 | 111 | 0.0 | 0.0 | 0.00 | 0.00 | 0.00 | 92 | 1017.3 |
| 20260508042205 | 3 | 111 | 0.0 | 0.0 | 0.00 | 0.00 | 0.00 | 92 | 1017.1 |
| 20260508040705 | 3 | 111 | 0.0 | 0.0 | 0.00 | 0.00 | 0.00 | 92 | 1016.9 |
| 20260508040204 | 3 | 111 | 0.0 | 0.0 | 0.00 | 0.00 | 0.00 | 92 | 1016.9 |
| 20260508035705 | 3 | 111 | 0.0 | 0.0 | 0.00 | 0.00 | 0.00 | 92 | 1016.9 |
| 20260508035205 | 3 | 111 | 0.0 | 0.0 | 0.00 | 0.00 | 0.00 | 92 | 1016.9 |
| 20260508034705 | 3 | 111 | 0.0 | 0.0 | 0.00 | 0.00 | 0.00 | 92 | 1016.9 |
| 20260508034205 | 3 | 111 | 0.0 | 0.0 | 0.00 | 0.00 | 0.00 | 92 | 1016.8 |
| 20260508033705 | 3 | 111 | 0.0 | 0.0 | 0.00 | 0.00 | 0.00 | 92 | 1016.8 |
| 20260508033205 | 3 | 111 | 0.0 | 0.0 | 0.00 | 0.00 | 0.00 | 92 | 1016.7 |
| 20260508032205 | 3 | 111 | 0.0 | 0.0 | 0.00 | 0.00 | 0.00 | 90 | 1016.6 |
| 20260508031704 | 3 | 111 | 0.0 | 0.0 | 0.00 | 0.00 | 0.00 | 90 | 1016.6 |
| 20260508031205 | 3 | 111 | 0.0 | 0.0 | 0.00 | 0.00 | 0.00 | 90 | 1016.5 |
| 20260508030704 | 3 | 111 | 0.0 | 0.0 | 0.00 | 0.00 | 0.00 | 90 | 1016.5 |
| 20260508030204 | 3 | 111 | 0.0 | 0.0 | 0.00 | 0.00 | 0.00 | 90 | 1016.5 |
| 20260508025719 | 3 | 111 | 0.0 | 0.0 | 0.00 | 0.00 | 0.00 | 90 | 1016.5 |
| 20260508025205 | 3 | 111 | 0.0 | 0.0 | 0.00 | 0.00 | 0.00 | 89 | 1016.5 |
| 20260508024204 | 4 | 111 | 0.0 | 0.0 | 0.00 | 0.00 | 0.00 | 89 | 1016.5 |
| 20260508023704 | 4 | 111 | 0.0 | 0.0 | 0.00 | 0.00 | 0.00 | 89 | 1016.4 |
| 20260508023204 | 4 | 111 | 0.0 | 0.0 | 0.00 | 0.00 | 0.00 | 89 | 1016.3 |
| 20260508022704 | 4 | 111 | 0.0 | 0.0 | 0.00 | 0.00 | 0.00 | 89 | 1016.3 |
| 20260508022205 | 4 | 111 | 0.0 | 0.0 | 0.00 | 0.00 | 0.00 | 89 | 1016.2 |
| 20260508021705 | 4 | 111 | 0.0 | 0.0 | 0.00 | 0.00 | 0.00 | 89 | 1016.2 |
| 20260508021205 | 5 | 111 | 0.0 | 0.0 | 0.00 | 0.00 | 0.00 | 87 | 1016.2 |
| 20260508020205 | 5 | 111 | 0.0 | 0.0 | 0.00 | 0.00 | 0.00 | 86 | 1016.3 |
| 20260508015704 | 5 | 111 | 0.0 | 0.0 | 0.00 | 0.00 | 0.00 | 86 | 1016.3 |
| 20260508015205 | 5 | 111 | 0.0 | 0.0 | 0.00 | 0.00 | 0.00 | 86 | 1016.2 |
| 20260508014704 | 5 | 111 | 0.0 | 0.0 | 0.00 | 0.00 | 0.00 | 86 | 1016.2 |
| 20260508014205 | 5 | 111 | 0.0 | 0.0 | 0.00 | 0.00 | 0.00 | 86 | 1016.2 |
| 20260508013705 | 5 | 111 | 0.0 | 0.0 | 0.00 | 0.00 | 0.00 | 85 | 1016.2 |
| 20260508013205 | 5 | 111 | 0.0 | 0.0 | 0.00 | 0.00 | 0.00 | 85 | 1016.1 |
| 20260508012705 | 6 | 111 | 0.0 | 0.0 | 0.00 | 0.00 | 0.00 | 85 | 1016.0 |
| 20260508012205 | 6 | 111 | 0.0 | 0.0 | 0.00 | 0.00 | 0.00 | 85 | 1016.0 |
| 20260508011704 | 6 | 111 | 0.0 | 0.0 | 0.00 | 0.00 | 0.00 | 85 | 1016.0 |
| 20260508010704 | 6 | 111 | 0.0 | 0.0 | 0.00 | 0.00 | 0.00 | 85 | 1016.1 |
| 20260508010205 | 6 | 111 | 0.0 | 0.0 | 0.00 | 0.00 | 0.00 | 85 | 1016.1 |
| 20260508005704 | 6 | 111 | 0.0 | 0.0 | 0.00 | 0.00 | 0.00 | 85 | 1016.1 |
| 20260508005205 | 7 | 111 | 0.0 | 0.0 | 0.00 | 0.00 | 0.00 | 85 | 1016.0 |
| 20260508004704 | 7 | 111 | 0.0 | 0.0 | 0.00 | 0.00 | 0.00 | 84 | 1016.1 |
| 20260508004205 | 7 | 111 | 0.0 | 0.0 | 0.00 | 0.00 | 0.00 | 84 | 1016.0 |
| 20260508003704 | 7 | 111 | 0.0 | 0.0 | 0.00 | 0.00 | 0.00 | 83 | 1016.0 |
| 20260508003204 | 7 | 111 | 0.0 | 0.0 | 0.00 | 0.00 | 0.00 | 83 | 1016.0 |
| 20260508002704 | 7 | 111 | 0.0 | 0.0 | 0.00 | 0.00 | 0.00 | 83 | 1016.0 |
| 20260508002204 | 7 | 111 | 0.0 | 0.0 | 0.00 | 0.00 | 0.00 | 83 | 1015.9 |
| 20260508001705 | 8 | 111 | 0.0 | 0.0 | 0.00 | 0.00 | 0.00 | 83 | 1015.9 |
| 20260508001204 | 8 | 111 | 0.0 | 0.0 | 0.00 | 0.00 | 0.00 | 83 | 1015.9 |
| 20260508000705 | 8 | 111 | 0.0 | 0.0 | 0.00 | 0.00 | 0.00 | 82 | 1015.9 |
| 20260508000205 | 8 | 111 | 0.0 | 6.4 | 0.00 | 0.00 | 0.00 | 82 | 1015.9 |
| 20260507235704 | 8 | 111 | 0.0 | 6.4 | 0.00 | 0.00 | 0.00 | 82 | 1015.9 |
| 20260507235205 | 8 | 111 | 0.0 | 6.4 | 0.00 | 0.00 | 0.00 | 82 | 1015.9 |
| 20260507234704 | 8 | 111 | 0.0 | 6.4 | 0.00 | 0.00 | 0.00 | 82 | 1015.9 |
| 20260507234205 | 8 | 111 | 3.2 | 4.8 | 0.00 | 0.00 | 0.00 | 82 | 1015.9 |
| 20260507233205 | 8 | 132 | 0.0 | 4.8 | 0.00 | 0.00 | 0.00 | 81 | 1015.8 |
| 20260507232705 | 8 | 132 | 1.6 | 6.4 | 0.00 | 0.00 | 0.00 | 81 | 1015.8 |
| 20260507232205 | 8 | 146 | 0.0 | 8.0 | 0.00 | 0.00 | 0.00 | 81 | 1015.8 |
| 20260507231705 | 8 | 196 | 0.0 | 8.0 | 0.00 | 0.00 | 0.00 | 79 | 1015.7 |
| 20260507231205 | 8 | 196 | 0.0 | 8.0 | 0.00 | 0.00 | 0.00 | 79 | 1015.8 |
| 20260507230705 | 8 | 196 | 1.6 | 11.3 | 0.00 | 0.00 | 0.00 | 79 | 1015.8 |
| 20260507230227 | 8 | 219 | 0.0 | 11.3 | 0.00 | 0.00 | 0.00 | 79 | 1015.8 |
| 20260507225705 | 9 | 129 | 0.0 | 11.3 | 0.00 | 0.00 | 0.00 | 79 | 1015.7 |
| 20260507225205 | 9 | 184 | 4.8 | 8.0 | 0.00 | 0.00 | 0.00 | 79 | 1015.7 |
| 20260507224705 | 9 | 213 | 0.0 | 8.0 | 0.00 | 0.00 | 0.00 | 78 | 1015.7 |
| 20260507224205 | 9 | 188 | 0.0 | 8.0 | 0.00 | 0.00 | 0.00 | 78 | 1015.6 |
| 20260507223704 | 9 | 104 | 0.0 | 6.4 | 0.00 | 0.00 | 0.00 | 78 | 1015.5 |
| 20260507222205 | 9 | 154 | 0.0 | 11.3 | 0.00 | 0.00 | 0.00 | 77 | 1015.4 |
| 20260507221205 | 9 | 163 | 4.8 | 9.7 | 0.00 | 0.00 | 0.00 | 77 | 1015.4 |
| 20260507220705 | 9 | 213 | 6.4 | 4.8 | 0.00 | 0.00 | 0.00 | 77 | 1015.4 |
| 20260507220205 | 9 | 108 | 1.6 | 0.0 | 0.00 | 0.00 | 0.00 | 77 | 1015.4 |
| 20260507215704 | 9 | 61 | 0.0 | 0.0 | 0.00 | 0.00 | 0.00 | 77 | 1015.4 |
| 20260507215204 | 9 | 61 | 0.0 | 4.8 | 0.00 | 0.00 | 0.00 | 76 | 1015.4 |
| 20260507214205 | 9 | 61 | 0.0 | 11.3 | 0.00 | 0.00 | 0.00 | 76 | 1015.4 |
| 20260507213205 | 9 | 195 | 0.0 | 11.3 | 0.00 | 0.00 | 0.00 | 75 | 1015.2 |
| 20260507212704 | 10 | 195 | 1.6 | 11.3 | 0.00 | 0.00 | 0.00 | 75 | 1015.2 |
| 20260507211704 | 10 | 208 | 0.0 | 11.3 | 0.00 | 0.00 | 0.00 | 74 | 1015.1 |
| 20260507210705 | 10 | 188 | 3.2 | 9.7 | 0.00 | 0.00 | 0.00 | 73 | 1015.1 |
| 20260507210205 | 10 | 130 | 1.6 | 9.7 | 0.00 | 0.00 | 0.00 | 73 | 1015.0 |
| 20260507205706 | 10 | 227 | 0.0 | 9.7 | 0.00 | 0.00 | 0.00 | 72 | 1014.9 |
| 20260507205204 | 10 | 192 | 0.0 | 11.3 | 0.00 | 0.00 | 0.00 | 72 | 1014.8 |
| 20260507204705 | 10 | 180 | 6.4 | 14.5 | 0.00 | 0.00 | 0.00 | 71 | 1014.7 |
| 20260507204205 | 10 | 220 | 4.8 | 14.5 | 0.00 | 0.00 | 0.00 | 71 | 1014.6 |
| 20260507203704 | 10 | 194 | 1.6 | 14.5 | 0.00 | 0.00 | 0.00 | 71 | 1014.5 |
| 20260507203205 | 11 | 188 | 6.4 | 16.1 | 0.00 | 0.00 | 0.00 | 70 | 1014.4 |
| 20260507202705 | 11 | 262 | 6.4 | 16.1 | 0.00 | 0.00 | 0.00 | 70 | 1014.4 |
| 20260507200705 | 11 | 243 | 9.7 | 12.9 | 0.00 | 0.00 | 0.00 | 69 | 1014.1 |
| 20260507200204 | 11 | 241 | 6.4 | 12.9 | 0.00 | 0.00 | 0.00 | 69 | 1014.0 |
| 20260507195704 | 11 | 258 | 6.4 | 14.5 | 0.00 | 0.00 | 0.00 | 69 | 1014.0 |
| 20260507195205 | 11 | 210 | 8.0 | 16.1 | 0.00 | 0.00 | 0.00 | 69 | 1013.8 |
| 20260507194704 | 11 | 250 | 6.4 | 16.1 | 0.00 | 0.00 | 0.00 | 68 | 1013.8 |
| 20260507194205 | 11 | 243 | 8.0 | 16.1 | 0.00 | 0.00 | 0.00 | 68 | 1013.8 |
| 20260507193704 | 11 | 209 | 4.8 | 16.1 | 0.00 | 0.00 | 0.00 | 68 | 1013.8 |
| 20260507192705 | 11 | 229 | 8.0 | 16.1 | 0.00 | 0.00 | 0.00 | 67 | 1013.6 |
| 20260507192205 | 12 | 209 | 8.0 | 17.7 | 0.00 | 0.00 | 0.00 | 67 | 1013.6 |
| 20260507191705 | 12 | 257 | 9.7 | 17.7 | 0.00 | 0.00 | 0.00 | 67 | 1013.6 |
| 20260507191205 | 12 | 137 | 6.4 | 17.7 | 0.00 | 0.00 | 0.00 | 67 | 1013.5 |
| 20260507185205 | 12 | 205 | 8.0 | 16.1 | 0.00 | 0.00 | 0.00 | 67 | 1013.4 |
| 20260507184705 | 12 | 253 | 9.7 | 16.1 | 0.00 | 0.00 | 0.00 | 67 | 1013.3 |
| 20260507184204 | 12 | 139 | 4.8 | 17.7 | 0.00 | 0.00 | 0.00 | 66 | 1013.3 |
| 20260507183204 | 12 | 212 | 11.3 | 20.9 | 0.00 | 0.00 | 0.00 | 66 | 1013.2 |
| 20260507182704 | 12 | 198 | 9.7 | 20.9 | 0.00 | 0.00 | 0.00 | 64 | 1013.2 |
| 20260507182206 | 12 | 202 | 12.9 | 20.9 | 0.00 | 0.00 | 0.00 | 64 | 1013.2 |
| 20260507181704 | 12 | 229 | 14.5 | 20.9 | 0.00 | 0.00 | 0.00 | 64 | 1013.1 |
| 20260507181204 | 12 | 225 | 12.9 | 19.3 | 0.00 | 0.00 | 0.00 | 64 | 1013.1 |
| 20260507180704 | 12 | 251 | 11.3 | 19.3 | 0.00 | 0.00 | 0.00 | 64 | 1013.0 |
| 20260507180204 | 12 | 260 | 8.0 | 22.5 | 0.00 | 0.00 | 0.00 | 64 | 1012.9 |
| 20260507175704 | 12 | 195 | 3.2 | 22.5 | 0.00 | 0.00 | 0.00 | 64 | 1012.9 |
| 20260507175204 | 12 | 239 | 11.3 | 22.5 | 0.00 | 0.00 | 0.00 | 63 | 1012.8 |
| 20260507174705 | 13 | 205 | 9.7 | 19.3 | 0.00 | 0.00 | 0.00 | 63 | 1012.8 |
| 20260507174205 | 13 | 225 | 9.7 | 19.3 | 0.00 | 0.00 | 0.00 | 63 | 1012.8 |
| 20260507173204 | 13 | 225 | 9.7 | 24.1 | 0.00 | 0.00 | 0.00 | 62 | 1012.7 |
| 20260507172705 | 13 | 192 | 6.4 | 24.1 | 0.00 | 0.00 | 0.00 | 61 | 1012.8 |
| 20260507172204 | 13 | 274 | 8.0 | 20.9 | 0.00 | 0.00 | 0.00 | 61 | 1012.8 |
| 20260507171705 | 13 | 236 | 14.5 | 22.5 | 0.00 | 0.00 | 0.00 | 60 | 1012.7 |
| 20260507171204 | 13 | 220 | 14.5 | 22.5 | 0.00 | 0.00 | 0.00 | 60 | 1012.6 |
| 20260507170704 | 13 | 246 | 12.9 | 25.7 | 0.00 | 0.00 | 0.00 | 61 | 1012.6 |
| 20260507170204 | 13 | 285 | 11.3 | 25.7 | 0.00 | 0.00 | 0.00 | 60 | 1012.6 |
| 20260507165705 | 13 | 257 | 16.1 | 25.7 | 0.00 | 0.00 | 0.00 | 60 | 1012.5 |
| 20260507165205 | 13 | 243 | 16.1 | 25.7 | 0.00 | 0.00 | 0.00 | 60 | 1012.6 |
| 20260507164205 | 13 | 234 | 14.5 | 27.4 | 0.00 | 0.00 | 0.00 | 60 | 1012.5 |
| 20260507163704 | 13 | 172 | 17.7 | 27.4 | 0.00 | 0.00 | 0.00 | 60 | 1012.4 |
| 20260507163204 | 13 | 237 | 14.5 | 29.0 | 0.00 | 0.00 | 0.00 | 60 | 1012.3 |
| 20260507162705 | 13 | 233 | 8.0 | 30.6 | 0.00 | 0.00 | 0.00 | 60 | 1012.3 |
| 20260507161704 | 13 | 239 | 12.9 | 30.6 | 0.00 | 0.00 | 0.00 | 59 | 1012.3 |
| 20260507160704 | 14 | 215 | 17.7 | 20.9 | 0.00 | 0.00 | 0.00 | 58 | 1012.2 |
| 20260507160204 | 14 | 240 | 9.7 | 20.9 | 0.00 | 0.00 | 0.00 | 58 | 1012.0 |
| 20260507155205 | 14 | 217 | 9.7 | 20.9 | 0.00 | 0.00 | 0.00 | 57 | 1011.9 |
| 20260507154704 | 14 | 261 | 8.0 | 19.3 | 0.00 | 0.00 | 0.00 | 57 | 1011.7 |
| 20260507154205 | 14 | 170 | 14.5 | 17.7 | 0.00 | 0.00 | 0.00 | 57 | 1011.7 |
| 20260507153705 | 15 | 255 | 8.0 | 17.7 | 0.00 | 0.00 | 0.00 | 56 | 1011.7 |
| 20260507153204 | 15 | 237 | 8.0 | 17.7 | 0.00 | 0.00 | 0.00 | 57 | 1011.7 |
| 20260507152704 | 15 | 144 | 6.4 | 20.9 | 0.00 | 0.00 | 0.00 | 58 | 1011.7 |
| 20260507152204 | 15 | 262 | 8.0 | 20.9 | 0.00 | 0.00 | 0.00 | 58 | 1011.7 |
| 20260507151704 | 15 | 195 | 11.3 | 24.1 | 0.00 | 0.00 | 0.00 | 59 | 1011.7 |
| 20260507151204 | 15 | 180 | 4.8 | 24.1 | 0.00 | 0.00 | 0.00 | 58 | 1011.7 |
| 20260507150705 | 15 | 178 | 12.9 | 24.1 | 0.00 | 0.00 | 0.00 | 58 | 1011.7 |
| 20260507150205 | 15 | 167 | 9.7 | 19.3 | 0.00 | 0.00 | 0.00 | 57 | 1011.8 |
| 20260507145704 | 15 | 191 | 8.0 | 17.7 | 0.00 | 0.00 | 0.00 | 58 | 1011.8 |
| 20260507145205 | 15 | 247 | 9.7 | 17.7 | 0.00 | 0.00 | 0.00 | 58 | 1011.8 |
| 20260507144705 | 15 | 226 | 8.0 | 17.7 | 0.00 | 0.00 | 0.00 | 58 | 1011.8 |
| 20260507144205 | 15 | 178 | 6.4 | 20.9 | 0.00 | 0.00 | 0.00 | 58 | 1011.8 |
| 20260507143205 | 15 | 142 | 6.4 | 20.9 | 0.00 | 0.00 | 0.00 | 59 | 1011.9 |
| 20260507142705 | 14 | 251 | 4.8 | 20.9 | 0.00 | 0.00 | 0.00 | 57 | 1012.0 |
| 20260507142205 | 14 | 111 | 11.3 | 20.9 | 0.00 | 0.00 | 0.00 | 56 | 1012.0 |
| 20260507141704 | 15 | 215 | 9.7 | 16.1 | 0.00 | 0.00 | 0.00 | 57 | 1012.1 |
| 20260507141204 | 15 | 209 | 9.7 | 16.1 | 0.00 | 0.00 | 0.00 | 56 | 1012.1 |
| 20260507140704 | 15 | 230 | 8.0 | 16.1 | 0.00 | 0.00 | 0.00 | 56 | 1012.1 |
| 20260507140205 | 15 | 275 | 8.0 | 16.1 | 0.00 | 0.00 | 0.00 | 57 | 1012.1 |
| 20260507135704 | 14 | 282 | 6.4 | 17.7 | 0.00 | 0.00 | 0.00 | 58 | 1012.2 |
| 20260507135205 | 14 | 205 | 11.3 | 17.7 | 0.00 | 0.00 | 0.00 | 58 | 1012.1 |
| 20260507134705 | 14 | 208 | 3.2 | 17.7 | 0.00 | 0.00 | 0.00 | 59 | 1012.2 |
| 20260507134205 | 14 | 250 | 6.4 | 24.1 | 0.00 | 0.00 | 0.00 | 59 | 1012.2 |
| 20260507133204 | 15 | 220 | 3.2 | 24.1 | 0.00 | 0.00 | 0.00 | 59 | 1012.3 |
| 20260507132705 | 15 | 219 | 6.4 | 24.1 | 0.00 | 0.00 | 0.00 | 60 | 1012.3 |
| 20260507131705 | 14 | 188 | 8.0 | 24.1 | 0.00 | 0.00 | 0.00 | 62 | 1012.5 |
| 20260507130704 | 13 | 233 | 11.3 | 24.1 | 0.00 | 0.00 | 0.00 | 63 | 1012.5 |
| 20260507130204 | 13 | 172 | 8.0 | 22.5 | 0.00 | 0.00 | 0.00 | 63 | 1012.5 |
| 20260507125704 | 13 | 243 | 14.5 | 19.3 | 0.00 | 0.00 | 0.00 | 63 | 1012.5 |
| 20260507125204 | 13 | 261 | 9.7 | 19.3 | 0.00 | 0.00 | 0.00 | 62 | 1012.5 |
| 20260507124704 | 13 | 240 | 9.7 | 22.5 | 0.00 | 0.00 | 0.00 | 62 | 1012.5 |
| 20260507123705 | 14 | 196 | 9.7 | 22.5 | 0.00 | 0.00 | 0.00 | 61 | 1012.5 |
| 20260507123204 | 14 | 260 | 6.4 | 22.5 | 0.00 | 0.00 | 0.00 | 60 | 1012.5 |
| 20260507122205 | 15 | 219 | 11.3 | 22.5 | 0.00 | 0.00 | 0.00 | 62 | 1012.7 |
| 20260507121732 | 14 | 144 | 9.7 | 20.9 | 0.00 | 0.00 | 0.00 | 62 | 1012.8 |
| 20260507120705 | 14 | 277 | 6.4 | 22.5 | 0.00 | 0.00 | 0.00 | 62 | 1012.8 |
| 20260507120204 | 14 | 241 | 12.9 | 22.5 | 0.00 | 0.00 | 0.00 | 63 | 1013.0 |
| 20260507115704 | 14 | 146 | 6.4 | 24.1 | 0.00 | 0.00 | 0.00 | 64 | 1013.0 |
| 20260507115205 | 14 | 264 | 9.7 | 24.1 | 0.00 | 0.00 | 0.00 | 66 | 1013.1 |
| 20260507114705 | 14 | 217 | 6.4 | 24.1 | 0.00 | 0.00 | 0.00 | 64 | 1013.2 |
| 20260507114205 | 14 | 137 | 8.0 | 22.5 | 0.00 | 0.00 | 0.00 | 67 | 1013.3 |
| 20260507113704 | 13 | 258 | 16.1 | 19.3 | 0.00 | 0.00 | 0.00 | 68 | 1013.3 |
| 20260507113204 | 13 | 157 | 9.7 | 20.9 | 0.00 | 0.00 | 0.00 | 69 | 1013.3 |
| 20260507112705 | 13 | 178 | 6.4 | 20.9 | 0.00 | 0.00 | 0.00 | 69 | 1013.3 |
| 20260507112205 | 13 | 163 | 8.0 | 20.9 | 0.00 | 0.00 | 0.00 | 69 | 1013.3 |
| 20260507111704 | 13 | 239 | 6.4 | 20.9 | 0.00 | 0.00 | 0.00 | 69 | 1013.4 |
| 20260507110704 | 13 | 227 | 11.3 | 19.3 | 0.00 | 0.00 | 0.00 | 72 | 1013.4 |
| 20260507110227 | 13 | 201 | 8.0 | 14.5 | 0.00 | 0.00 | 0.00 | 72 | 1013.5 |
| 20260507105704 | 13 | 215 | 8.0 | 14.5 | 0.00 | 0.00 | 0.00 | 71 | 1013.5 |
| 20260507105206 | 13 | 132 | 6.4 | 16.1 | 0.00 | 0.00 | 0.00 | 71 | 1013.6 |
| 20260507103704 | 13 | 168 | 4.8 | 19.3 | 0.00 | 0.00 | 0.00 | 72 | 1013.8 |
| 20260507103204 | 13 | 215 | 9.7 | 20.9 | 0.00 | 0.00 | 0.00 | 72 | 1013.9 |
| 20260507102705 | 13 | 133 | 9.7 | 24.1 | 0.00 | 0.00 | 0.00 | 71 | 1013.9 |
| 20260507102205 | 13 | 150 | 8.0 | 24.1 | 0.00 | 0.00 | 0.00 | 72 | 1014.0 |
| 20260507101705 | 12 | 164 | 12.9 | 24.1 | 0.00 | 0.00 | 0.00 | 72 | 1014.0 |
| 20260507101204 | 12 | 180 | 11.3 | 19.3 | 0.00 | 0.00 | 0.00 | 72 | 1014.2 |